IQ8KL-13 Weather Reports


time (UTC)temp
C
wind
direction
speed
KPH
gust
KPH
rain 1hr
cm
rain 24hr
cm
rain mn
cm
humidity
%
barometer
mb
20260906153032 32 0.0 0.0 0.00 0.00 0.00 1017.2
20260906151031 32 0.0 0.0 0.00 0.00 0.00 1016.9
20260906145030 30 0.0 0.0 0.00 0.00 0.00 1017.1
20260906143029 28 0.0 0.0 0.00 0.00 0.00 1017.1
20260906141027 29 0.0 0.0 0.00 0.00 0.00 1017.0
20260906135026 31 0.0 0.0 0.00 0.00 0.00 1016.9
20260906133025 33 0.0 0.0 0.00 0.00 0.00 1017.0
20260906131024 31 0.0 0.0 0.00 0.00 0.00 1017.0
20260906125022 32 0.0 0.0 0.00 0.00 0.00 1017.1
20260906123021 32 0.0 0.0 0.00 0.00 0.00 1017.2
20260906121020 33 0.0 0.0 0.00 0.00 0.00 1017.2
20260906115019 33 0.0 0.0 0.00 0.00 0.00 1017.3
20260906113017 33 0.0 0.0 0.00 0.00 0.00 1017.4
20260906111016 33 0.0 0.0 0.00 0.00 0.00 1017.4
20260906105015 33 0.0 0.0 0.00 0.00 0.00 1017.5
20260906103014 33 0.0 0.0 0.00 0.00 0.00 1017.6
20260906101012 33 0.0 0.0 0.00 0.00 0.00 1017.7
20260906095011 33 0.0 0.0 0.00 0.00 0.00 1017.6
20260906093010 33 0.0 0.0 0.00 0.00 0.00 1017.8
20260906091008 32 0.0 0.0 0.00 0.00 0.00 1017.9
20260906085007 32 0.0 0.0 0.00 0.00 0.00 1017.7
20260906083006 33 0.0 0.0 0.00 0.00 0.00 1017.8
20260906081005 32 0.0 0.0 0.00 0.00 0.00 1017.7
20260906073249 29 0.0 0.0 0.00 0.00 0.00 1017.7
20260906071247 30 0.0 0.0 0.00 0.00 0.00 1017.6
20260906065246 33 0.0 0.0 0.00 0.00 0.00 1017.3
20260906063245 33 0.0 0.0 0.00 0.00 0.00 1017.2
20260906061244 33 0.0 0.0 0.00 0.00 0.00 1017.2
20260906055242 33 0.0 0.0 0.00 0.00 0.00 1017.1
20260906053241 33 0.0 0.0 0.00 0.00 0.00 1016.9
20260906051240 33 0.0 0.0 0.00 0.00 0.00 1016.7
20260906045239 33 0.0 0.0 0.00 0.00 0.00 1016.8
20260906043237 33 0.0 0.0 0.00 0.00 0.00 1016.7
20260906041236 33 0.0 0.0 0.00 0.00 0.00 1016.7
20260906035235 33 0.0 0.0 0.00 0.00 0.00 1016.6
20260906033233 33 0.0 0.0 0.00 0.00 0.00 1016.4
20260906031232 33 0.0 0.0 0.00 0.00 0.00 1016.3
20260906025231 33 0.0 0.0 0.00 0.00 0.00 1016.4
20260906023230 34 0.0 0.0 0.00 0.00 0.00 1016.6
20260906021228 34 0.0 0.0 0.00 0.00 0.00 1016.4
20260906015227 34 0.0 0.0 0.00 0.00 0.00 1016.5
20260906013226 34 0.0 0.0 0.00 0.00 0.00 1016.5
20260906011225 33 0.0 0.0 0.00 0.00 0.00 1016.6
20260906005223 33 0.0 0.0 0.00 0.00 0.00 1016.5
20260906003222 33 0.0 0.0 0.00 0.00 0.00 1016.5
20260906001221 32 0.0 0.0 0.00 0.00 0.00 1016.7
20260905235219 30 0.0 0.0 0.00 0.00 0.00 1016.7
20260905233218 28 0.0 0.0 0.00 0.00 0.00 1017.0
20260905231217 29 0.0 0.0 0.00 0.00 0.00 1017.1
20260905225216 29 0.0 0.0 0.00 0.00 0.00 1017.1
20260905223215 29 0.0 0.0 0.00 0.00 0.00 1017.2
20260905223111 29 0.0 0.0 0.00 0.00 0.00 1017.2
20260905221801 31 0.0 0.0 0.00 0.00 0.00 1017.1
20260905220059 34 0.0 0.0 0.00 0.00 0.00 1017.2
20260905214055 34 0.0 0.0 0.00 0.00 0.00 1017.3
20260905212051 34 0.0 0.0 0.00 0.00 0.00 1017.3
20260905210047 34 0.0 0.0 0.00 0.00 0.00 1017.4
20260905204043 34 0.0 0.0 0.00 0.00 0.00 1017.4
20260905202039 34 0.0 0.0 0.00 0.00 0.00 1017.4
20260905200035 34 0.0 0.0 0.00 0.00 0.00 1017.4
20260905194031 34 0.0 0.0 0.00 0.00 0.00 1017.3
20260905192027 34 0.0 0.0 0.00 0.00 0.00 1017.3
20260905190023 34 0.0 0.0 0.00 0.00 0.00 1017.1
20260905184018 33 0.0 0.0 0.00 0.00 0.00 1016.9
20260905182016 32 0.0 0.0 0.00 0.00 0.00 1016.8
20260905180015 32 0.0 0.0 0.00 0.00 0.00 1016.7
20260905174014 31 0.0 0.0 0.00 0.00 0.00 1016.6
20260905172012 28 0.0 0.0 0.00 0.00 0.00 1016.5
20260905171554 28 0.0 0.0 0.00 0.00 0.00 1016.5
20260905170815 29 0.0 0.0 0.00 0.00 0.00 1016.5
20260905164814 35 0.0 0.0 0.00 0.00 0.00 1016.3
20260905164101 35 0.0 0.0 0.00 0.00 0.00 1016.2
20260905162100 35 0.0 0.0 0.00 0.00 0.00 1016.3
20260905160058 35 0.0 0.0 0.00 0.00 0.00 1016.3